Consulta los datos en tiempo real de la estación meteorológica de Calldetenes
| Hora UTC | 11:25 |
|---|---|
| Temperatura | 33.2 ºC |
| Suelo 15 cm | 37.8 ºC |
| Humedad | 33.8 % |
| Presión | 1023.0 hPa |
| Pluja | 0.0 mm |
| Velocidad viento | 4.2 km/h |
| Dirección viento | SW |
| Radiación solar | 771.7 W/m² |
| Temperatura (ºC) | Humedad (%) | Presión (hPa) | Velocidad viento (km/h) | Precipitación (mm) | Radiación solar (W/m²) | ||||||||||||||
|---|---|---|---|---|---|---|---|---|---|---|---|---|---|---|---|---|---|---|---|
| Hora UTC | Aire | Suelo 15 cm | Humedad | Presión | Vel. | Dir. | Vel. Max | Dir. | Intent. máx 5 min. | Rad. Sol. | |||||||||
| 00:05 | 17.4 | 17.4 | 85.2 | 1024.0 | 3.5 | SE | 3.5 | SE | 0.0 | 0.1 | |||||||||
| 00:10 | 17.2 | 17.3 | 85.5 | 1024.0 | 0.8 | ESE | 3.9 | ESE | 0.0 | 0.1 | |||||||||
| 00:15 | 17.3 | 17.2 | 86.0 | 1024.1 | 4.4 | ESE | 6.7 | ESE | 0.0 | 0.1 | |||||||||
| 00:20 | 17.2 | 17.2 | 85.8 | 1024.1 | 3.3 | SE | 6.0 | ESE | 0.0 | 0.1 | |||||||||
| 00:25 | 17.2 | 17.1 | 86.0 | 1024.1 | 0.7 | SSE | 3.2 | SSE | 0.0 | 0.1 | |||||||||
| 00:30 | 17.1 | 17.1 | 86.8 | 1024.1 | 0.1 | SSE | 1.4 | SSE | 0.0 | 0.1 | |||||||||
| 00:35 | 17.1 | 17.1 | 87.2 | 1024.1 | 1.5 | ESE | 3.2 | E | 0.0 | 0.1 | |||||||||
| 00:40 | 17.2 | 17.1 | 87.4 | 1024.1 | 5.3 | ESE | 7.4 | ESE | 0.0 | 0.1 | |||||||||
| 00:45 | 17.2 | 17.2 | 86.8 | 1024.1 | 5.7 | E | 7.1 | ESE | 0.0 | 0.1 | |||||||||
| 00:50 | 17.2 | 17.2 | 87.1 | 1024.1 | 4.5 | E | 6.0 | E | 0.0 | 0.1 | |||||||||
| 00:55 | 17.3 | 17.3 | 86.6 | 1024.1 | 3.4 | E | 4.2 | ENE | 0.0 | 0.1 | |||||||||
| 01:00 | 17.2 | 17.3 | 86.7 | 1024.1 | 1.4 | ESE | 3.5 | E | 0.0 | 0.1 | |||||||||
| 01:05 | 17.3 | 17.3 | 87.4 | 1024.0 | 3.3 | SE | 4.9 | SE | 0.0 | 0.1 | |||||||||
| 01:10 | 17.7 | 17.4 | 86.0 | 1024.0 | 4.1 | SE | 6.0 | ESE | 0.0 | 0.1 | |||||||||
| 01:15 | 17.4 | 17.3 | 85.1 | 1024.0 | 3.2 | SE | 6.0 | ESE | 0.0 | 0.1 | |||||||||
| 01:20 | 17.2 | 17.1 | 85.7 | 1024.0 | 3.8 | SE | 5.3 | ESE | 0.0 | 0.1 | |||||||||
| 01:25 | 16.9 | 17.0 | 86.2 | 1024.0 | 2.8 | SSE | 5.3 | ESE | 0.0 | 0.1 | |||||||||
| 01:30 | 17.1 | 16.8 | 87.8 | 1024.0 | 2.0 | S | 4.2 | SSW | 0.0 | 0.1 | |||||||||
| 01:35 | 17.1 | 16.8 | 87.9 | 1024.0 | 3.5 | SW | 5.6 | SW | 0.0 | 0.1 | |||||||||
| 01:40 | 17.4 | 16.9 | 87.3 | 1024.0 | 3.0 | SSW | 4.9 | SSW | 0.0 | 0.1 | |||||||||
| 01:45 | 17.8 | 17.1 | 85.4 | 1024.0 | 3.5 | S | 4.6 | SSW | 0.0 | 0.1 | |||||||||
| 01:50 | 17.9 | 17.4 | 82.8 | 1024.0 | 1.1 | S | 3.2 | SSE | 0.0 | 0.1 | |||||||||
| 01:55 | 17.5 | 17.4 | 84.2 | 1024.0 | 1.1 | SSE | 2.5 | SSE | 0.0 | 0.1 | |||||||||
| 02:00 | 17.4 | 17.3 | 85.2 | 1024.0 | 2.0 | SSE | 3.5 | S | 0.0 | 0.1 | |||||||||
| 02:05 | 17.3 | 17.1 | 85.7 | 1024.0 | 1.9 | SSE | 3.2 | S | 0.0 | 0.1 | |||||||||
| 02:10 | 17.2 | 17.0 | 86.3 | 1024.0 | 3.0 | ESE | 4.6 | ESE | 0.0 | 0.1 | |||||||||
| 02:15 | 16.8 | 16.8 | 87.0 | 1024.0 | 3.2 | ESE | 6.0 | ESE | 0.0 | 0.1 | |||||||||
| 02:20 | 16.8 | 16.6 | 87.9 | 1024.0 | 4.2 | ESE | 6.0 | ESE | 0.0 | 0.1 | |||||||||
| 02:25 | 16.5 | 16.5 | 86.5 | 1024.0 | 2.5 | ESE | 4.2 | ESE | 0.0 | 0.1 | |||||||||
| 02:30 | 16.4 | 16.4 | 88.4 | 1024.0 | 3.5 | E | 4.6 | E | 0.0 | 0.1 | |||||||||
| 02:35 | 16.4 | 16.3 | 88.7 | 1024.0 | 2.6 | E | 3.9 | E | 0.0 | 0.1 | |||||||||
| 02:40 | 16.3 | 16.2 | 88.5 | 1024.0 | 2.1 | ESE | 3.5 | ESE | 0.0 | 0.1 | |||||||||
| 02:45 | 16.1 | 16.1 | 88.7 | 1024.0 | 1.8 | SE | 4.9 | S | 0.0 | 0.1 | |||||||||
| 02:50 | 16.6 | 16.0 | 89.5 | 1024.0 | 1.6 | SSE | 5.3 | S | 0.0 | 0.1 | |||||||||
| 02:55 | 16.5 | 16.2 | 88.1 | 1024.0 | 1.2 | SE | 2.8 | SE | 0.0 | 0.1 | |||||||||
| 03:00 | 16.3 | 16.1 | 89.1 | 1024.0 | 1.7 | ESE | 2.5 | SE | 0.0 | 0.1 | |||||||||
| 03:05 | 16.2 | 16.1 | 90.2 | 1024.0 | 2.0 | SE | 3.2 | SE | 0.0 | 0.1 | |||||||||
| 03:10 | 16.2 | 16.0 | 90.1 | 1024.0 | 1.6 | ESE | 5.3 | E | 0.0 | 0.1 | |||||||||
| 03:15 | 16.0 | 15.9 | 89.8 | 1024.0 | 5.3 | E | 6.7 | E | 0.0 | 0.1 | |||||||||
| 03:20 | 16.0 | 15.9 | 90.5 | 1024.0 | 4.3 | ESE | 5.3 | E | 0.0 | 0.1 | |||||||||
| 03:25 | 16.0 | 16.0 | 89.8 | 1023.9 | 3.7 | ESE | 5.3 | ESE | 0.0 | 0.1 | |||||||||
| 03:30 | 15.9 | 15.9 | 89.6 | 1023.9 | 1.6 | SE | 4.6 | SE | 0.0 | 0.1 | |||||||||
| 03:35 | 15.7 | 15.8 | 90.3 | 1023.9 | 1.0 | ESE | 2.8 | ESE | 0.0 | 0.1 | |||||||||
| 03:40 | 15.8 | 15.6 | 91.1 | 1023.9 | 1.4 | S | 2.1 | S | 0.0 | 0.1 | |||||||||
| 03:45 | 15.6 | 15.5 | 90.5 | 1023.8 | 0.2 | E | 1.4 | E | 0.0 | 0.1 | |||||||||
| 03:50 | 15.7 | 15.5 | 92.4 | 1023.8 | 1.1 | SSE | 2.5 | SSE | 0.0 | 0.1 | |||||||||
| 03:55 | 15.6 | 15.5 | 91.5 | 1023.7 | 0.1 | ENE | 1.4 | E | 0.0 | 0.1 | |||||||||
| 04:00 | 15.6 | 15.4 | 91.7 | 1023.7 | 0.7 | ESE | 2.8 | ESE | 0.0 | 0.1 | |||||||||
| 04:05 | 15.3 | 15.4 | 91.1 | 1023.7 | 1.6 | E | 2.5 | E | 0.0 | 0.1 | |||||||||
| 04:10 | 15.2 | 15.2 | 91.5 | 1023.7 | 1.3 | ESE | 2.8 | ESE | 0.0 | 0.1 | |||||||||
| 04:15 | 15.2 | 15.2 | 92.2 | 1023.7 | 1.3 | ESE | 3.2 | ESE | 0.0 | 0.1 | |||||||||
| 04:20 | 15.2 | 15.1 | 92.1 | 1023.7 | 2.1 | ESE | 3.9 | ESE | 0.0 | 0.1 | |||||||||
| 04:25 | 15.2 | 15.1 | 92.3 | 1023.6 | 2.1 | SE | 3.5 | SE | 0.0 | 0.1 | |||||||||
| 04:30 | 15.1 | 15.1 | 92.1 | 1023.6 | 1.8 | ESE | 4.2 | ESE | 0.0 | 0.1 | |||||||||
| 04:35 | 15.1 | 15.0 | 93.1 | 1023.6 | 2.7 | ESE | 4.2 | ESE | 0.0 | 0.1 | |||||||||
| 04:40 | 15.1 | 15.0 | 92.6 | 1023.6 | 2.5 | S | 3.5 | S | 0.0 | 0.1 | |||||||||
| 04:45 | 15.0 | 15.0 | 92.1 | 1023.6 | 1.7 | S | 3.2 | S | 0.0 | 0.1 | |||||||||
| 04:50 | 15.0 | 14.9 | 93.0 | 1023.6 | 0.8 | S | 2.5 | SSW | 0.0 | 0.1 | |||||||||
| 04:55 | 14.9 | 14.8 | 93.1 | 1023.6 | 0.0 | SSW | 1.1 | SSW | 0.0 | 0.2 | |||||||||
| 05:00 | 15.0 | 14.8 | 93.6 | 1023.6 | 0.0 | NNE | 0.0 | SSW | 0.0 | 0.2 | |||||||||
| 05:05 | 15.1 | 14.7 | 94.2 | 1023.7 | 0.1 | SE | 1.8 | SE | 0.0 | 0.5 | |||||||||
| 05:10 | 15.2 | 14.8 | 94.2 | 1023.7 | 1.8 | SE | 2.8 | SE | 0.0 | 1.0 | |||||||||
| 05:15 | 14.9 | 14.8 | 92.9 | 1023.7 | 0.5 | SSE | 1.8 | SE | 0.0 | 1.9 | |||||||||
| 05:20 | 15.0 | 14.7 | 94.0 | 1023.7 | 0.9 | S | 2.5 | S | 0.0 | 3.2 | |||||||||
| 05:25 | 14.8 | 14.7 | 93.2 | 1023.9 | 0.0 | SSW | 1.1 | SSW | 0.0 | 5.1 | |||||||||
| 05:30 | 14.8 | 14.5 | 93.6 | 1023.9 | 0.5 | SSE | 2.8 | SSE | 0.0 | 7.4 | |||||||||
| 05:35 | 14.8 | 14.6 | 93.9 | 1024.0 | 0.8 | SSE | 2.8 | SSE | 0.0 | 9.9 | |||||||||
| 05:40 | 14.7 | 14.6 | 93.6 | 1024.0 | 1.0 | ESE | 3.2 | ESE | 0.0 | 12.6 | |||||||||
| 05:45 | 14.7 | 14.5 | 93.5 | 1024.1 | 2.1 | ESE | 3.9 | ESE | 0.0 | 15.3 | |||||||||
| 05:50 | 14.7 | 14.6 | 93.9 | 1024.1 | 2.5 | ESE | 3.9 | ESE | 0.0 | 17.7 | |||||||||
| 05:55 | 14.9 | 14.7 | 94.1 | 1024.1 | 3.0 | ESE | 4.9 | ESE | 0.0 | 20.1 | |||||||||
| 06:00 | 15.0 | 14.8 | 93.9 | 1024.1 | 2.6 | SE | 4.6 | SE | 0.0 | 22.3 | |||||||||
| 06:05 | 15.0 | 14.9 | 94.1 | 1024.2 | 3.5 | ESE | 5.3 | ESE | 0.0 | 25.0 | |||||||||
| 06:10 | 15.5 | 15.1 | 95.5 | 1024.2 | 3.7 | SE | 5.3 | SE | 0.0 | 28.0 | |||||||||
| 06:15 | 15.5 | 15.3 | 94.5 | 1024.2 | 2.5 | SE | 3.9 | ESE | 0.0 | 30.6 | |||||||||
| 06:20 | 15.6 | 15.2 | 94.6 | 1024.2 | 0.4 | SE | 2.1 | SE | 0.0 | 33.7 | |||||||||
| 06:25 | 15.8 | 15.2 | 94.7 | 1024.3 | 0.0 | N | 1.1 | N | 0.0 | 54.4 | |||||||||
| 06:30 | 16.0 | 15.3 | 94.6 | 1024.3 | 0.0 | NNE | 0.0 | N | 0.0 | 111.0 | |||||||||
| 06:35 | 16.2 | 15.5 | 94.4 | 1024.4 | 0.0 | NNE | 0.0 | N | 0.0 | 129.8 | |||||||||
| 06:40 | 16.5 | 15.6 | 94.6 | 1024.4 | 1.1 | NNE | 2.5 | NNE | 0.0 | 144.5 | |||||||||
| 06:45 | 16.7 | 15.8 | 93.5 | 1024.4 | 0.7 | NE | 1.4 | NNE | 0.0 | 158.2 | |||||||||
| 06:50 | 16.9 | 16.0 | 92.4 | 1024.4 | 1.1 | SSE | 2.8 | SSE | 0.0 | 172.3 | |||||||||
| 06:55 | 17.3 | 16.2 | 89.4 | 1024.4 | 1.7 | SSE | 3.9 | SSE | 0.0 | 186.4 | |||||||||
| 07:00 | 17.7 | 16.4 | 86.4 | 1024.4 | 0.1 | NE | 1.1 | NE | 0.0 | 200.0 | |||||||||
| 07:05 | 17.8 | 16.5 | 86.6 | 1024.4 | 0.8 | NNE | 2.5 | NE | 0.0 | 214.6 | |||||||||
| 07:10 | 17.9 | 16.6 | 86.5 | 1024.4 | 0.8 | ENE | 3.5 | NE | 0.0 | 229.5 | |||||||||
| 07:15 | 18.1 | 16.8 | 85.9 | 1024.4 | 0.3 | N | 1.8 | N | 0.0 | 244.0 | |||||||||
| 07:20 | 18.3 | 17.0 | 84.4 | 1024.4 | 1.9 | NW | 3.2 | N | 0.0 | 259.0 | |||||||||
| 07:25 | 18.6 | 17.1 | 83.0 | 1024.4 | 2.3 | NW | 3.9 | WNW | 0.0 | 272.5 | |||||||||
| 07:30 | 18.8 | 17.2 | 81.4 | 1024.4 | 1.8 | NNW | 4.6 | N | 0.0 | 285.4 | |||||||||
| 07:35 | 19.1 | 17.3 | 81.2 | 1024.4 | 3.3 | NE | 5.6 | NNE | 0.0 | 300.2 | |||||||||
| 07:40 | 19.2 | 17.5 | 80.2 | 1024.4 | 2.5 | NE | 4.9 | NNE | 0.0 | 316.3 | |||||||||
| 07:45 | 19.4 | 17.7 | 79.6 | 1024.4 | 1.9 | N | 4.9 | NNE | 0.0 | 331.4 | |||||||||
| 07:50 | 19.5 | 17.8 | 78.6 | 1024.4 | 0.6 | NNW | 2.5 | NNW | 0.0 | 346.5 | |||||||||
| 07:55 | 19.6 | 17.9 | 78.7 | 1024.4 | 0.2 | NNE | 1.8 | NNW | 0.0 | 361.5 | |||||||||
| 08:00 | 19.7 | 18.0 | 77.3 | 1024.4 | 1.3 | NNW | 3.9 | N | 0.0 | 377.2 | |||||||||
| 08:05 | 20.0 | 18.1 | 77.0 | 1024.2 | 2.6 | NW | 5.6 | NW | 0.0 | 392.3 | |||||||||
| 08:10 | 20.3 | 18.3 | 76.1 | 1024.2 | 2.8 | NW | 4.9 | WNW | 0.0 | 406.9 | |||||||||
| 08:15 | 20.6 | 18.4 | 74.6 | 1024.2 | 3.5 | NE | 7.4 | NE | 0.0 | 420.9 | |||||||||
| 08:20 | 20.9 | 18.6 | 73.4 | 1024.2 | 5.3 | NNE | 9.9 | NE | 0.0 | 435.6 | |||||||||
| 08:25 | 21.2 | 18.8 | 72.3 | 1024.2 | 3.8 | N | 8.8 | N | 0.0 | 449.1 | |||||||||
| 08:30 | 21.4 | 19.0 | 72.1 | 1024.2 | 2.3 | NNE | 5.6 | NNE | 0.0 | 460.8 | |||||||||
| 08:35 | 21.5 | 19.1 | 71.4 | 1024.2 | 4.2 | NNE | 7.8 | NE | 0.0 | 474.5 | |||||||||
| 08:40 | 21.8 | 19.3 | 71.0 | 1024.2 | 4.3 | NE | 7.1 | ENE | 0.0 | 487.8 | |||||||||
| 08:45 | 22.1 | 19.6 | 70.2 | 1024.2 | 3.8 | NNE | 7.4 | ENE | 0.0 | 500.1 | |||||||||
| 08:50 | 22.3 | 19.8 | 68.2 | 1024.2 | 2.5 | NNE | 7.4 | NNE | 0.0 | 514.3 | |||||||||
| 08:55 | 22.5 | 19.9 | 68.2 | 1024.3 | 3.5 | NE | 7.4 | NE | 0.0 | 525.3 | |||||||||
| 09:00 | 22.9 | 20.2 | 66.3 | 1024.3 | 4.6 | NNE | 6.7 | NNE | 0.0 | 537.5 | |||||||||
| 09:05 | 23.2 | 20.4 | 65.3 | 1024.3 | 3.9 | NE | 8.8 | NE | 0.0 | 550.1 | |||||||||
| 09:10 | 23.4 | 20.6 | 65.2 | 1024.3 | 2.3 | NE | 5.3 | NE | 0.0 | 563.2 | |||||||||
| 09:15 | 23.7 | 20.7 | 64.2 | 1024.2 | 3.8 | N | 6.7 | NNE | 0.0 | 573.3 | |||||||||
| 09:20 | 24.1 | 21.0 | 62.3 | 1024.2 | 3.8 | NW | 8.5 | NNW | 0.0 | 582.9 | |||||||||
| 09:25 | 24.5 | 21.2 | 60.2 | 1024.2 | 3.4 | NW | 7.8 | WNW | 0.0 | 596.0 | |||||||||
| 09:30 | 24.9 | 21.4 | 58.0 | 1024.2 | 3.8 | NW | 6.7 | NNW | 0.0 | 608.1 | |||||||||
| 09:35 | 25.3 | 21.6 | 54.8 | 1024.2 | 3.8 | NW | 7.4 | W | 0.0 | 618.7 | |||||||||
| 09:40 | 26.4 | 21.9 | 51.3 | 1024.2 | 3.9 | SW | 7.4 | SW | 0.0 | 629.8 | |||||||||
| 09:45 | 27.7 | 22.5 | 47.4 | 1024.1 | 3.3 | W | 6.0 | WNW | 0.0 | 641.1 | |||||||||
| 09:50 | 27.8 | 23.2 | 47.2 | 1024.1 | 3.1 | NW | 7.1 | NW | 0.0 | 650.8 | |||||||||
| 09:55 | 28.2 | 23.8 | 46.4 | 1024.0 | 0.6 | ENE | 2.5 | ENE | 0.0 | 660.8 | |||||||||
| 10:00 | 29.4 | 24.5 | 42.5 | 1024.0 | 1.9 | SSE | 3.9 | S | 0.0 | 670.0 | |||||||||
| 10:05 | 29.7 | 25.3 | 42.2 | 1023.9 | 1.5 | E | 3.9 | ESE | 0.0 | 679.4 | |||||||||
| 10:10 | 30.0 | 26.3 | 40.8 | 1023.9 | 3.7 | SSE | 8.1 | SSW | 0.0 | 687.4 | |||||||||
| 10:15 | 30.0 | 27.2 | 40.6 | 1023.9 | 2.4 | SSE | 4.2 | SE | 0.0 | 696.5 | |||||||||
| 10:20 | 30.0 | 27.9 | 40.9 | 1023.9 | 0.9 | SSW | 3.5 | S | 0.0 | 705.1 | |||||||||
| 10:25 | 30.9 | 28.7 | 38.5 | 1023.8 | 3.3 | SW | 8.8 | WSW | 0.0 | 713.2 | |||||||||
| 10:30 | 31.0 | 29.4 | 38.4 | 1023.8 | 5.7 | W | 9.5 | W | 0.0 | 720.2 | |||||||||
| 10:35 | 30.6 | 29.9 | 39.3 | 1023.7 | 5.7 | NW | 9.5 | WNW | 0.0 | 726.2 | |||||||||
| 10:40 | 30.6 | 30.4 | 39.2 | 1023.7 | 6.4 | WSW | 18.7 | W | 0.0 | 734.1 | |||||||||
| 10:45 | 31.6 | 31.0 | 37.1 | 1023.5 | 6.1 | SW | 11.6 | WSW | 0.0 | 742.2 | |||||||||
| 10:50 | 31.8 | 31.5 | 36.7 | 1023.5 | 5.0 | WSW | 12.0 | WSW | 0.0 | 746.4 | |||||||||
| 10:55 | 32.1 | 32.3 | 35.9 | 1023.3 | 6.1 | WNW | 12.4 | WNW | 0.0 | 750.2 | |||||||||
| 11:00 | 31.8 | 33.2 | 37.7 | 1023.3 | 3.0 | NW | 6.4 | WNW | 0.0 | 754.0 | |||||||||
| 11:05 | 32.9 | 34.6 | 35.2 | 1023.2 | 4.9 | SSW | 13.1 | S | 0.0 | 757.1 | |||||||||
| 11:10 | 33.4 | 35.8 | 34.0 | 1023.2 | 4.1 | W | 13.1 | WSW | 0.0 | 760.2 | |||||||||
| 11:15 | 32.7 | 36.5 | 34.3 | 1023.1 | 10.1 | SSW | 15.5 | S | 0.0 | 767.4 | |||||||||
| 11:20 | 32.8 | 37.0 | 35.0 | 1023.1 | 4.9 | S | 13.4 | S | 0.0 | 771.3 | |||||||||
| 11:25 | 33.2 | 37.8 | 33.8 | 1023.0 | 4.2 | SW | 10.9 | SSW | 0.0 | 771.7 | |||||||||
| Máxima | 33.4 | 37.8 | 95.5 | 1024.4 | 10.1 | SSW | 18.7 | W | 0.0 | 771.7 | |||||||||
| Mínima | 14.7 | 14.5 | 33.8 | 1023.0 | |||||||||||||||
| Total | 0.0 | ||||||||||||||||||